Current Version              Previous Version:    01  02  03  04  05  06  07  08  09  10  11  12  13  14  15  16  17  18  19  20  21  22  23  24  25  26  27  28  29  30  
   31  32  33  34  35  36  37  38  39  40  41  42  43  44  45  46  47  48  49  50  51  52  53  54  55  56  57  58  59  60  

[Printable]
181
ASUS44 KFWD 271215
RWRTX
NORTH TEXAS HOURLY WEATHER ROUNDUP
NATIONAL WEATHER SERVICE FORT WORTH TX
600 AM CST SAT DEC 27 2014

NOTE: "FAIR" INDICATES FEW OR NO CLOUDS BELOW 12,000 FEET WITH NO
SIGNIFICANT WEATHER AND/OR OBSTRUCTIONS TO VISIBILITY.

TXZ118-119-271300-
DALLAS/FORT WORTH METROPLEX

CITY           SKY/WX    TMP DP  RH WIND       PRES   REMARKS
DFW AIRPORT    CLOUDY    43  36  76 N20G31    30.12R WCI  34
6HR MIN TEMP:  43; 6HR MAX TEMP:  62; 6HR PCP: TRACE;

DALLAS LOVE    CLOUDY    43  38  82 N15G31    30.12R WCI  36
6HR MIN TEMP:  43; 6HR MAX TEMP:  63; 6HR PCP:  0.11;

FTW MEACHAM    CLOUDY    43  35  73 N17G30    30.13R WCI  35
6HR MIN TEMP:  43; 6HR MAX TEMP:  62; 6HR PCP:  0.01;

DAL-EXECUTIVE  CLOUDY    45  38  76 N21G30    30.10R WCI  37
6HR MIN TEMP:  45; 6HR MAX TEMP:  64; 6HR PCP: TRACE;

FTW-ALLIANCE   CLOUDY    41  35  79 N17       30.13R WCI  32
6HR MIN TEMP:  41; 6HR MAX TEMP:  60; 6HR PCP: TRACE;

FTW-SPINKS     CLOUDY    44  38  79 N21       30.14R WCI  35
6HR MIN TEMP:  44; 6HR MAX TEMP:  63; 6HR PCP:  0.01;

ARLINGTON      CLOUDY    45  36  70 N21G30    30.12R WCI  37
6HR MIN TEMP:  45; 6HR MAX TEMP:  65; 6HR PCP:  0.03;

ADDISON        CLOUDY    43  37  81 N21G28    30.12R WCI  34
LANCASTER      LGT RAIN  44  40  87 N20G25    30.10R WCI  35
6HR MIN TEMP:  44; 6HR MAX TEMP:  62;

$$

TXZ091>094-102>105-117-120-121-131>134-271300-
NORTH CENTRAL TEXAS

CITY           SKY/WX    TMP DP  RH WIND       PRES   REMARKS
SHRMAN/DENISON CLOUDY    40  39  96 N14G23    30.18R WCI  32
6HR MIN TEMP:  40; 6HR MAX TEMP:  61; 6HR PCP:  0.08;

GAINESVILLE    LGT RAIN  38  35  90 N13       30.18R WCI  30
6HR MIN TEMP:  38; 6HR MAX TEMP:  50; 6HR PCP:  0.10;

BOWIE          CLOUDY    37  32  81 N15G23    30.17R WCI  28
6HR MIN TEMP:  37; 6HR MAX TEMP:  44;

BRIDGEPORT     CLOUDY    40  34  79 N12       30.18R WCI  33
6HR MIN TEMP:  40; 6HR MAX TEMP:  52;

DECATUR        CLOUDY    39  32  74 N12G17    30.15R WCI  32
6HR MIN TEMP:  39; 6HR MAX TEMP:  56;

DENTON         CLOUDY    40  35  83 N17G25    30.15R WCI  31
6HR MIN TEMP:  40; 6HR MAX TEMP:  59; 6HR PCP: TRACE;

MCKINNEY       LGT RAIN  43  39  86 N23       30.11R WCI  34
6HR MIN TEMP:  43; 6HR MAX TEMP:  62; 6HR PCP: TRACE;

GREENVILLE     LGT RAIN  43  41  93 N24G30    30.09R WCI  33
ROCKWALL       DRIZZLE   44  42  93 N17G25    30.09R WCI  36
6HR MIN TEMP:  44; 6HR MAX TEMP:  61; 6HR PCP:  0.01;

TERRELL        LGT RAIN  47  43  86 N15G25    30.08R FOG
6HR MIN TEMP:  47; 6HR MAX TEMP:  64; 6HR PCP: TRACE;

WAXAHACHIE     CLOUDY    43  43 100 NW18G26   30.10R FOG     WCI  34
6HR MIN TEMP:  43; 6HR MAX TEMP:  64; 6HR PCP:  0.02;

CLEBURNE       CLOUDY    45  41  87 N13G28    30.13R WCI  38
GRANBURY       CLOUDY    46  35  65 NW15G21   30.17R WCI  39
6HR MIN TEMP:  46; 6HR MAX TEMP:  57;

$$

TXZ083>090-098>101-113>116-127>130-139>142-154-155-271300-
WESTERN NORTH TEXAS

CITY           SKY/WX    TMP DP  RH WIND       PRES   REMARKS
WICHITA FALLS  CLOUDY    36  29  75 N23G29    30.20S WCI  24
6HR MIN TEMP:  36; 6HR MAX TEMP:  41; 6HR PCP: TRACE;

WF-KICKAPOO    CLOUDY    38  28  67 N12G20    30.22R WCI  31
6HR MIN TEMP:  38; 6HR MAX TEMP:  42;

VERNON         CLOUDY    33  29  85 N13G21    30.26R WCI  24
6HR MIN TEMP:  33; 6HR MAX TEMP:  65;

ABILENE        LGT RAIN  37  31  78 N15       30.18R WCI  28
6HR MIN TEMP:  37; 6HR MAX TEMP:  48; 6HR PCP:  0.01;

ABILENE-DYESS  LGT RAIN  36  32  87 N13       30.18R WCI  27
6HR MIN TEMP:  37; 6HR MAX TEMP:  46; 6HR PCP: TRACE;

BRECKENRIDGE   CLOUDY    41  29  61 N9        30.19R WCI  36
6HR MIN TEMP:  41; 6HR MAX TEMP:  48;

GRAHAM         CLOUDY    39  32  76 N16       30.18R WCI  30
6HR MIN TEMP:  39; 6HR MAX TEMP:  45;

MINERAL WELLS  CLOUDY    41  32  70 N20       30.16R WCI  32
6HR MIN TEMP:  41; 6HR MAX TEMP:  54;

STEPHENVILLE   CLOUDY    43  32  66 N18G26    30.15R WCI  34
6HR MIN TEMP:  43; 6HR MAX TEMP:  55;

COMANCHE       CLOUDY    43  34  71 N20G26    30.14R WCI  34
6HR MIN TEMP:  43; 6HR MAX TEMP:  55;

BROWNWOOD      CLOUDY    43  30  61 N17G30    30.12S WCI  35
COLEMAN        DRIZZLE   40  33  75 N21       30.13R WCI  31
6HR MIN TEMP:  40; 6HR MAX TEMP:  51;

BRADY          LGT RAIN  45  34  65 N21       30.09R WCI  36
$$

TXZ143>147-156>162-174-175-271300-
CENTRAL TEXAS

CITY           SKY/WX    TMP DP  RH WIND       PRES   REMARKS
WACO           CLOUDY    47  42  83 N24G30    30.06R WCI  39
6HR MIN TEMP:  47; 6HR MAX TEMP:  64; 6HR PCP: TRACE;

WACO-MCGREGOR  CLOUDY    48  41  76 N21G28    30.07R
6HR MIN TEMP:  48; 6HR MAX TEMP:  64;

HILLSBORO      CLOUDY    46  41  84 NW24      30.08R WCI  37
6HR MIN TEMP:  45; 6HR MAX TEMP:  65;

CORSICANA      LGT RAIN  48  46  93 N22G29    30.06R FOG
6HR MIN TEMP:  50; 6HR MAX TEMP:  64; 6HR PCP: TRACE;

MEXIA          CLOUDY    62  62  99 CALM      29.99R FOG
6HR MIN TEMP:  62; 6HR MAX TEMP:  64; 6HR PCP:  0.03;

HEARNE         CLOUDY    63  62  99 W5        30.00R FOG
6HR MIN TEMP:  60; 6HR MAX TEMP:  65;

CAMERON        FOG       62  62  99 W6        30.00R VSB 1/4
6HR MIN TEMP:  62; 6HR MAX TEMP:  65;

TEMPLE         CLOUDY    52  46  82 NW18G24   30.03R
6HR MIN TEMP:  52; 6HR MAX TEMP:  63;

KILLEEN        CLOUDY    49  45  87 NW18      30.07R
6HR MIN TEMP:  49; 6HR MAX TEMP:  61;

KILLEEN-SKYLRK CLOUDY    52  39  62 NW16G23   30.04R
6HR MIN TEMP:  52; 6HR MAX TEMP:  63;

FORT HOOD      CLOUDY    49  44  84 N18G28    30.05R
6HR MIN TEMP:  49; 6HR MAX TEMP:  62;

GATESVILLE     CLOUDY    46  39  76 N22G28    30.11R WCI  38
HAMILTON       CLOUDY    45  35  68 N18       30.11R WCI  38
6HR MIN TEMP:  45; 6HR MAX TEMP:  56;

$$

TXZ095>097-106>112-122>126-135>138-148>153-164>167-271300-
EAST TEXAS

CITY           SKY/WX    TMP DP  RH WIND       PRES   REMARKS
PARIS          CLOUDY    45  41  87 N20G30    30.08R WCI  37
6HR MIN TEMP:  45; 6HR MAX TEMP:  57;

SULPHUR SPRNGS LGT RAIN  46  46  99 NW17      30.09R WCI  39
6HR MIN TEMP:  46; 6HR MAX TEMP:  61; 6HR PCP:  0.01;

MOUNT PLEASANT CLOUDY    59  59 100 SE6       30.03S
6HR MIN TEMP:  58; 6HR MAX TEMP:  59; 6HR PCP:  0.01;

GILMER         FOG       59  59 100 SE5       30.02R VSB 1
6HR MIN TEMP:  58; 6HR MAX TEMP:  59; 6HR PCP:  0.12;

MINEOLA        FOG       61  61 100 SE3       30.02R VSB 1/2
TYLER          LGT RAIN  62  60  93 SE5       30.01R FOG
6HR MIN TEMP:  61; 6HR MAX TEMP:  62; 6HR PCP:  0.38;

LONGVIEW       CLOUDY    61  59  93 E5        30.01R FOG
6HR MIN TEMP:  61; 6HR MAX TEMP:  62; 6HR PCP:  0.04;

MARSHALL       CLOUDY    62  60  93 CALM      30.05R
6HR MIN TEMP:  61; 6HR MAX TEMP:  64; 6HR PCP:  0.08;

ATHENS         LGT RAIN  61  61 100 CALM      30.00R VSB 3/4
PALESTINE      CLOUDY    64  64 100 E3        30.01R FOG
JACKSONVILLE   FOG       63  62  97 CALM      30.03R VSB 1/4
HENDERSON      CLOUDY    61  61 100 CALM      30.03R FOG
6HR MIN TEMP:  61; 6HR MAX TEMP:  62;

NACOGDOCHES      N/A    N/A N/A N/A MISG        N/A
LUFKIN         FOG       65  62  90 SE6       30.00S VSB 3/4
6HR MIN TEMP:  64; 6HR MAX TEMP:  65;

$$

SUPPLEMENTAL OBSERVATIONS (CENTRAL)

CITY           SKY/WX    TMP DP  RH WIND       PRES   REMARKS
LAKE TEXOMA      N/A     39  34  81 N15         N/A  WCI  31
CADDO GRASSLND   N/A     41  37  87 N8          N/A  WCI  36
PAT MAYSE LAKE   N/A     41  39  93 NW18        N/A  WCI  32
GREENVILLE       N/A     43  37  81 N22G29      N/A  WCI  34
CEDAR HILL       N/A     45  39  81 N10G21      N/A  WCI  39
ATHENS           N/A    N/A N/A N/A CALM        N/A
LAKE LIMESTONE   N/A     64  61  88 NE1         N/A
MCGREGOR         N/A     48  43  81 N12G22      N/A
$$

SUPPLEMENTAL OBSERVATIONS (WEST)

CITY           SKY/WX    TMP DP  RH WIND       PRES   REMARKS
LBJ GRASSLAND    N/A     39  34  81 N12G20      N/A  WCI  32
COMANCHE         N/A     43  34  70 N22G28      N/A  WCI  34
HAMBY            N/A     36  30  80 N12G20      N/A  WCI  27
IVIE RESERVOIR   N/A     41  32  70 N9G20       N/A  WCI  35